Location: ?????
(54.9266°N, 38.5527°E)
Time: 19:58:35
(UTC+00:00)

deb REX - Pass Details

Date: 28 September 2024
Orbit: 705 x 731 km, 89.8° (Epoch: 09 October)

Event Time Altitude Azimuth Distance (km) Brightness Sun altitude
Rises 02:42:42 0° 1° (N) 3,119 ? -6.6°
Reaches altitude 10° 02:45:00 10° 2° (N) 2,193 ? -6.3°
Maximum altitude 02:49:52 84° 90° (E) 718 ? -5.6°
Drops below altitude 10° 02:54:42 10° 180° (S) 2,174 ? -4.9°
Sets 02:56:58 0° 181° (S) 3,089 ? -4.6°
